FENGYUN 1C DEB, 29961

Orbit data source: Space-Track

FENGYUN 1C DEB, 29961 is space debris in SSO originally from a launch on Mon, 10 May 1999 UTC launched from the Taiyaun Space Center, China (TSC). Fengyun 1C debris stems from the Chinese weather satellite Fengyun-1C, which was intentionally destroyed by a Chinese anti-satellite missile in 2007. This event dramatically increased the amount of space debris, with thousands of trackable fragments posing hazards to satellites and human spaceflight. The Fengyun 1C debris cloud has become a focal point in discussions about space sustainability and the need for international regulations to prevent the creation of new debris.

Loading next visibility...
Identifier
29961, 1999-025KK
Orbit
SSO
Country
Flag of CNCN / PRC
Related business
Manufacturer
Unknown
Mission
Spacecraft
Bus & Motor
Unknown
Mass
Unknown
Launch date (UTC)
1999-05-10 (27 years ago)
Launch vehicle
Unknown
Launch site
Taiyaun Space Center, China (TSC)
Object type
Payload
Rocket body
Debris
Shape & HBR
Unknown shape, 0.3 m
Radar Cross Section
Medium (>0.1 m² and <1 m²)

Expand to show TLE details & history
Last TLE update: 8 hours ago

TLE from 8 hours ago
0 FENGYUN 1C DEB
1 29961U 99025KK  26170.57250908  .00000216  00000-0  10579-3 0  9998
2 29961  98.9295  66.8576 0075560 117.8802 243.0057 14.26371820 10016
Epoch: 2026-06-19T13:44Z
TLE epoch observation values (Epoch: 2026-06-19T13:44:24.784Z)
Latitude
-0.00002°
Longitude
-47.04522°
Altitude
831.762 km
Speed
7.424 km/s
True Right ascension
04h 27m 25s
True Declination
0° 00' 00"
Sunlit
Object was in daylight at epoch
Visualization orbit readout
Latitude
Unknown
Longitude
Unknown
Altitude
Unknown
Speed
Unknown
Apparent Right ascension
Unknown
Apparent Declination
Unknown
Sunlit
N/A
Visualization observer readout
Local Sidereal Time
08:43:24
Azimuth
Unknown
Elevation
Unknown
Doppler factor
Unknown
Orbital elements
Apogee altitude
855.29 km
Perigee altitude
746.799 km
Semi-major axis
7,179.182 km
Eccentricity
0.00756
Inclination
98.9295°
RAAN
66.8576°
Arg. of periapsis
117.8802°
True anomaly
242.2375°
Mean anomaly
243.0057°
Eccentric anomaly
242.62127°
Mean motion
3.56805 °/min
Orbital period
100.9 mins
BSTAR
0.00010579
Loading maneuver chart data...
Computing Atmospheric mass density...

Documentation

Showing up to 5 results
|